Regional Weather Roundup
Issued by NWS Charleston, SC

Current Version | Previous Version | Text Only | Print | Product List | Glossary Off
Versions: 1 2 3 4 5 6 7 8 9 10 11 12 13 14 15 16 17 18 19 20 21 22 23 24 25 26 27 28 29 30 31 32 33 34 35 36 37 38 39 40 41 42 43 44 45 46 47 48 49 50

476
ASUS42 KCHS 291628
RWRCHS

REGIONAL WEATHER ROUNDUP
NATIONAL WEATHER SERVICE CHARLESTON SC
1200 PM EDT FRI JUL 29 2016

NOTE: "FAIR" INDICATES FEW OR NO CLOUDS BELOW 12,000 FEET WITH NO
SIGNIFICANT WEATHER AND/OR OBSTRUCTIONS TO VISIBILITY.

NOT ALL STATIONS ARE QUALITY CONTROLLED. USE DATA WITH CAUTION...
ESPECIALLY DEWPOINT OBSERVATIONS.

SCZ027-030-031-034>040-042>050-291700-
...SOUTHEAST SOUTH CAROLINA...

CITY           SKY/WX    TMP DP  RH WIND       PRES   REMARKS
N CHARLESTON   MOSUNNY   93  69  45 W15G25    29.97F HX  98
WATERFRONT PRK   N/A     91  73  55 W8        29.96S HX  99
MOUNT PLEASANT FAIR      93  72  49 W12G18    29.96F HX 100
JOHNS ISLAND   FAIR      95  72  46 W10       29.97F HX 103
PINOPOLIS        N/A     88  72  58 W15       29.89F HX  94
MONCKS CORNER  FAIR      90  64  43 W8        29.95F HX  91
SUMMERVILLE    FAIR      95  68  41 W10G18    29.97F HX  99
BEAUFORT MCAS  MOSUNNY   95  69  42 W13       29.99F HX 100
BEAUFORT ARPT  FAIR      95  70  43 W16       29.98F HX 101
HILTON HEAD IS SUNNY     97  73  46 W14       30.01R HX 107
WALTERBORO     SUNNY     95  64  36 W14G21    29.98F HX  97
ALLENDALE      FAIR      93  70  46 VRB7      29.98F HX  99

...SOUTHERN MIDLANDS AND PEE DEE...

CITY           SKY/WX    TMP DP  RH WIND       PRES   REMARKS
GEORGETOWN     FAIR      90  70  51 W16G23    29.95F HX  95
KINGSTREE      FAIR      91  68  46 SW13G18   29.94F HX  95
ORANGEBURG     SUNNY     92  71  50 W9        29.97F HX  98
BARNWELL       NOT AVBL
AIKEN          FAIR      90  70  51 W14G21    30.02S HX  95
MANNING        FAIR      91  70  49 SW9       29.95F HX  97
COLUMBIA       MOSUNNY   93  69  45 W10       29.95F HX  98
SUMTER         MOSUNNY   91  71  52 W12       29.92F HX  97
FLORENCE       PTSUNNY   88  73  61 SW9       29.94F HX  95
MYRTLE BEACH   MOSUNNY   93  68  43 W12G20    29.95F HX  97
N MYRTLE BEACH SUNNY     92  71  50 W9        29.92F HX  98

$$

GAZ063-065-086>088-099>101-113>116-118-119-134>141-150-291700-
...SOUTHEAST GEORGIA...

CITY           SKY/WX    TMP DP  RH WIND       PRES   REMARKS
SAVANNAH ARPT  MOSUNNY   93  70  46 W8        30.01F HX  99
HUNTER AAF     SUNNY     93  76  58 W9        29.99F HX 106
FORT STEWART   SUNNY     92  71  49 W7        29.99F HX  98
STATESBORO     SUNNY     92  74  55 W6        30.01F HX 100
SYLVANIA       NOT AVBL
CLAXTON        FAIR      93  71  49 S10G16    30.01F HX 100

...CSRA...CENTRAL AND FAR SOUTHEAST GEORGIA...

CITY           SKY/WX    TMP DP  RH WIND       PRES   REMARKS
THOMSON        NOT AVBL
AUGUSTA-BUSH   SUNNY     94  68  42 W12       29.97F HX  98
AUGUSTA-DANIEL SUNNY     92  68  45 W9G17     30.00F HX  96
SWAINSBORO     FAIR      91  70  49 W8        30.03S HX  97
VIDALIA        MOSUNNY   93  68  43 W9G16     30.02F HX  97
EASTMAN        FAIR      92  59  32 W7        30.06S HX  91
HAZLEHURST     FAIR      94  72  47 CALM      30.02F HX 102
ALMA           MOSUNNY   92  71  50 VRB5      30.03F HX  98
WAYCROSS       MOSUNNY   97  75  49 W9G17     30.03F HX 109
JESUP          FAIR      95  75  52 NW14      30.02F HX 107
BAXLEY         FAIR      93  73  52 W6        30.02F HX 102
BRUNSWICK      SUNNY     95  75  52 W7        30.03F HX 107
SAINT SIMONS   MOSUNNY   94  71  47 MISG      30.02F HX 101

$$

SCZ027-028-034-036>038-045-046-048>050-GAZ119-141-291700-
...LAKE AND SUPPLEMENTAL COASTAL OBSERVATIONS...

STATION/POSITION TIME  TEMP    WIND        PRES    WAVE   SWELL
                       AIR SEA DIR/SP/G            HT/PER HT/PER/DIR
                 (UTC) (F)     (DEG/KT/KT) (MB)    (FT/S) (FT/S/D)
WINYAH BAY       1500   89     270/ 12     1014.0
LAKE MURRAY      1600   87     260/ 10/ 14 1013.9F
ACE BASIN NERRS  1500   90     300/  3     1016.0S
FORT PULASKI     1600   89 87  270/ 10/ 15 1016.4F
SAPELO ISLAND    1600   93     270/  1     1016.0F

$$

ANZ835-935-AMZ111-154-330-350-352-354-370-450-454-472-291700-
...C-MAN AND BUOY OBSERVATIONS...

STATION/POSITION TIME  TEMP    WIND        PRES    WAVE   SWELL
                       AIR SEA DIR/SP/G            HT/PER HT/PER/DIR
                 (UTC) (F)     (DEG/KT/KT) (MB)    (FT/S) (FT/S/D)
BUOY 41004       1550   85 85  250/ 10/ 12 1015.0F   4/ 6   3/220/ 6
BUOY 41008       1550   86 87  250/  4/  6 1016.7F   2/ 3   2/160/ 4
FOLLY BEACH CMAN 1600   92     260/  8/ 13 1015.2F
CAPERS NEARSHORE 1608   89 85  280/ 16/ 21 1014.5F
FRIPP NEARSHORE  1608   88 87  260/ 10/ 12 1015.2F


STATION/POSITION TIME  TEMP    WIND        PRES    WAVE   SWELL
                       AIR SEA DIR/SP/G            HT/PER HT/PER/DIR
                 (UTC) (F)     (DEG/KT/KT) (MB)    (FT/S) (FT/S/D)
5E ST. MARYS GA  1601      86                N/A     1/ 5
FRYING PAN BUOY  1600   86 85  230/ 14/ 16 1014.0F
BUOY 41025       1550   85 85  230/ 16/ 19 1012.6F   3/ 6   2/220/14
CAPE LOOKOUT NC  1600   87     230/ 12/ 18 1012.5F
BUOY 41002       1550   85 85  240/ 10/ 12 1016.5F   3/ 6   3/250/ 6
BUOY 41010       1520   85 86  260/ 10/ 12 1018.1R
ST AUGUSTINE FL  1600   84 85   80/  6/  7 1018.5F


$$




USA.gov is the U.S. government's official web portal to all federal, state and local government web resources and services.